Change the Weather History Date:

Friday, February 8, 2013

  Actual Average Record
Temperature  
Mean Temperature 46 °F -  
Max Temperature 57 °F 60 °F 79 °F (2006)
Min Temperature 36 °F 40 °F 24 °F (1989)
Degree Days  
Heating Degree Days 18    
Moisture  
Dew Point 31 °F    
Average Humidity 62    
Maximum Humidity 93    
Minimum Humidity 14    
Precipitation  
Precipitation 0.00 in - - ()
Sea Level Pressure  
Sea Level Pressure 30.02 in    
Wind  
Wind Speed 11 mph (NNW)    
Max Wind Speed 28 mph    
Max Gust Speed 34 mph    
Visibility 10 miles    
Events Rain    
Averages and records for this station are not official NWS values.
T = Trace of Precipitation, MM = Missing Value Source: NWS Daily Summary

Daily Weather History Graph

Daily Weather History Graph

Search for Another Location

Airport or City:

Trip Planner

Search our weather history database for the weather conditions in past years. The results will help you decide how hot, cold, wet, or windy it might be!

Date:

Astronomy

Feb. 08, 2013 Rise Set
Actual Time 7:10 AM PST 5:36 PM PST
Civil Twilight 6:41 AM PST 6:05 PM PST
Nautical Twilight 6:09 AM PST 6:37 PM PST
Astronomical Twilight 5:38 AM PST 7:08 PM PST
Moon 5:43 AM PST (2/8) 4:16 PM PST (2/8)
Length of Visible Light 11h 23m
Length of Day
10h 26m
Waning Crescent, 3% of the Moon is Illuminated
Feb 8
Waning Crescent
Feb 9
New
Feb 17
First Quarter
Feb 25
Full
Mar 4
Last Quarter

Hourly Weather History & Observations

Time (PST) Temp. Windchill Dew Point Humidity Pressure Visibility Wind Dir Wind Speed Gust Speed Precip Events Conditions
12:15 AM 41.0 °F 34.3 °F 37.4 °F 87% 30.02 in 10.0 mi NNW 11.5 mph - 0.00 in Rain Light Rain
12:49 AM 41.0 °F 35.2 °F 37.4 °F 87% 30.01 in 10.0 mi NNW 9.2 mph - 0.00 in Rain Light Rain
12:54 AM 41.0 °F 35.2 °F 37.0 °F 86% 30.01 in 10.0 mi NNW 9.2 mph - 0.00 in Rain Light Rain
1:37 AM 39.2 °F 33.6 °F 37.4 °F 93% 30.01 in 10.0 mi North 8.1 mph - 0.01 in Rain Light Rain
1:54 AM 39.9 °F 34.5 °F 37.0 °F 89% 30.01 in 10.0 mi NNW 8.1 mph - 0.01 in   Overcast
2:12 AM 39.2 °F 32.5 °F 35.6 °F 87% 30.01 in 10.0 mi NNW 10.4 mph - 0.00 in Rain Light Rain
2:37 AM 39.2 °F 33.6 °F 35.6 °F 87% 30.01 in 10.0 mi NNW 8.1 mph - 0.00 in Rain Light Rain
2:54 AM 39.9 °F 35.1 °F 37.0 °F 89% 30.00 in 10.0 mi NNW 6.9 mph - 0.00 in Rain Light Rain
3:11 AM 39.2 °F 34.2 °F 37.4 °F 93% 30.00 in 10.0 mi NNW 6.9 mph - 0.00 in Rain Light Rain
3:54 AM 39.9 °F 35.8 °F 37.0 °F 89% 30.00 in 10.0 mi NNW 5.8 mph - 0.01 in Rain Light Rain
4:34 AM 39.2 °F 33.0 °F 37.4 °F 93% 30.00 in 10.0 mi NNW 9.2 mph - 0.00 in   Overcast
4:54 AM 39.9 °F 35.1 °F 37.0 °F 89% 30.01 in 10.0 mi NNW 6.9 mph - 0.00 in Rain Light Rain
5:54 AM 39.0 °F 35.7 °F 36.0 °F 89% 30.01 in 10.0 mi NNW 4.6 mph - 0.00 in   Clear
6:54 AM 37.0 °F 32.4 °F 34.0 °F 89% 30.02 in 10.0 mi NNW 5.8 mph - N/A   Clear
7:54 AM 37.0 °F 34.5 °F 34.0 °F 89% 30.04 in 10.0 mi NNW 3.5 mph - N/A   Clear
8:54 AM 42.1 °F 35.2 °F 36.0 °F 79% 30.04 in 10.0 mi NNW 12.7 mph - N/A   Clear
9:54 AM 46.0 °F 39.9 °F 36.0 °F 68% 30.05 in 10.0 mi NNW 13.8 mph - N/A   Clear
10:54 AM 51.1 °F - 33.1 °F 50% 30.04 in 10.0 mi NNW 18.4 mph 25.3 mph N/A   Clear
11:54 AM 53.1 °F - 28.9 °F 40% 30.04 in 10.0 mi North 27.6 mph 34.5 mph N/A   Clear
12:54 PM 55.9 °F - 26.1 °F 32% 30.01 in 10.0 mi North 20.7 mph 29.9 mph N/A   Clear
1:54 PM 57.0 °F - 23.0 °F 27% 29.99 in 10.0 mi North 20.7 mph 29.9 mph N/A   Clear
2:54 PM 57.0 °F - 21.9 °F 26% 29.98 in 10.0 mi North 17.3 mph 27.6 mph N/A   Clear
3:54 PM 57.0 °F - 21.0 °F 25% 29.98 in 10.0 mi North 15.0 mph 26.5 mph N/A   Clear
4:54 PM 55.9 °F - 21.0 °F 26% 29.99 in 10.0 mi NNE 12.7 mph - N/A   Clear
5:54 PM 51.1 °F - 21.9 °F 32% 30.01 in 10.0 mi North 9.2 mph - N/A   Clear
6:54 PM 48.0 °F - 21.9 °F 36% 30.02 in 10.0 mi NNW 4.6 mph - N/A   Clear
7:54 PM 46.0 °F 41.9 °F 24.1 °F 42% 30.04 in 10.0 mi NNW 8.1 mph - N/A   Clear
8:54 PM 46.0 °F 41.0 °F 25.0 °F 44% 30.04 in 10.0 mi NNW 10.4 mph - N/A   Clear
9:54 PM 46.9 °F - 23.0 °F 39% 30.04 in 10.0 mi NNW 15.0 mph - N/A   Clear
10:54 PM 46.0 °F 40.2 °F 23.0 °F 40% 30.04 in 10.0 mi NNW 12.7 mph - N/A   Clear
11:54 PM 45.0 °F 40.1 °F 23.0 °F 42% 30.04 in 10.0 mi NW 9.2 mph - N/A   Clear